www.pogodaiklimat.ru

Погода и климат >> Архив погоды >> Индия >> Naliya


ПОГОДА в Naliya

  • Прогноз погоды в Naliya
  • Монитор погоды в Naliya
  • Климат города

АРХИВ ПОГОДЫ в Naliya

Время (UTC), дата Ветер
(напр.,м/с)
 
Видим.   Явления Облачность Т
(С)
Тd
(С)
f
(%)
Тe
(С)
Тes
(С)
Комфортность P
(гПа)
Po
(гПа)
Тmin
(С)
Tmax
(С)
R
(мм)
S
(см)
09 17.02 штиль 0 10 км ясно +36.6 +14.0 26 +37 +54 опасность
солнечного
удара
1014.6 1015.0
12 17.02 З 2 10 км ясно +34.4 +15.2 32 +36 +38 душно 1013.7 1014.0 +36.2
15 17.02 штиль 0 4000 м ясно +29.4 +14.6 41 +32 +32 душно 1016.3 1016.0
18 17.02 штиль 0 4000 м ясно +26.0 +14.7 50 +29 +29 душно 1017.2 1017.0
21 17.02 штиль 0 4000 м ясно +21.4 +14.6 65 +24 +24 комфорт 1016.4 1016.0
00 18.02 штиль 0 4000 м ясно +21.2 +13.6 62 +24 +24 комфорт 1015.7 1016.0
03 18.02 штиль 0 10 км ясно +20.0 +13.0 64 +22 +24 комфорт 1017.5 1018.0 +17.8
06 18.02 штиль 0 10 км ясно +33.4 +12.3 28 +34 +51 опасность
солнечного
удара
1018.1 1018.0
09 18.02 СВ 2 10 км ясно +37.6 +9.4 18 +36 +49 очень
жарко
1014.8 1015.0
12 18.02 З 2 10 км ясно +35.2 +13.2 27 +36 +37 очень
жарко
1014.2 1014.0 +38.2
15 18.02 штиль 0 4000 м ясно +28.4 +17.3 51 +32 +32 душно 1015.8 1016.0
18 18.02 штиль 0 4000 м ясно +25.0 +16.2 58 +28 +28 жарко 1017.0 1017.0
21 18.02 штиль 0 4000 м ясно +20.0 +13.0 64 +22 +22 комфорт 1016.0 1016.0
00 19.02 штиль 0 4000 м ясно +17.6 +12.2 71 +18 +18 1015.5 1016.0
03 19.02 штиль 0 10 км ясно +18.6 +12.1 66 +19 +22 1017.3 1017.0 +15.8
06 19.02 СЗ 2 10 км ясно +31.4 +10.1 27 +31 +45 жарко 1018.0 1018.0
09 19.02 З 3 10 км ясно +33.6 +6.5 19 +32 +43 жарко 1015.7 1016.0
12 19.02 З 3 10 км ясно +30.4 +13.9 37 +32 +33 жарко 1013.9 1014.0 +33.8
15 19.02 штиль 0 4000 м ясно +24.6 +16.9 62 +28 +28 душно 1014.3 1014.0
18 19.02 штиль 0 4000 м ясно +22.2 +19.7 86 +28 +28 душно 1014.1 1014.0
21 19.02 штиль 0 1000 м туман ясно +20.0 +19.4 96 +23 +23 комфорт 1012.8 1013.0
00 20.02 штиль 0 4000 м ясно +22.4 +21.3 94 +29 +29 очень
душно
1011.9 1012.0
03 20.02 З 2 10 км ясно +23.2 +21.1 88 +31 +33 очень
душно
1013.1 1013.0 +18.6
06 20.02 З 2 10 км ясно +27.4 +15.7 49 +30 +44 жарко 1013.9 1014.0
09 20.02 З 2 10 км ясно +29.6 +6.3 23 +28 +41 жарко 1010.6 1011.0
12 20.02 З 2 10 км ясно +27.2 +8.0 30 +27 +28 жарко 1009.5 1010.0 +28.8
15 20.02 З 2 500 м ясно +22.2 +14.8 63 +26 +26 душно 1011.1 1011.0
18 20.02 З 1 4000 м ясно +21.4 +14.2 64 +24 +24 комфорт 1010.6 1011.0
21 20.02 З 1 4000 м ясно +20.6 +15.2 71 +25 +25 комфорт 1009.3 1009.0
00 21.02 штиль 0 4000 м ясно +20.2 +15.5 74 +23 +23 комфорт 1008.8 1009.0
03 21.02 штиль 0 10 км ясно +18.4 +16.0 86 +19 +22 1010.6 1011.0 +16.6
06 21.02 З 2 10 км ясно +26.2 +12.4 42 +28 +41 жарко 1011.6 1012.0
09 21.02 З 2 10 км ясно +27.8 +10.0 33 +28 +41 жарко 1009.6 1010.0
12 21.02 З 2 10 км ясно +26.0 +11.2 40 +27 +29 жарко 1008.6 1009.0 +28.4
15 21.02 З 1 4000 м ясно +21.4 +13.8 62 +24 +24 комфорт 1010.7 1011.0
18 21.02 штиль 0 4000 м ясно +18.8 +13.2 70 +20 +20 1011.6 1012.0
21 21.02 штиль 0 4000 м ясно +17.2 +14.0 81 +17 +17 1010.0 1010.0
00 22.02 штиль 0 4000 м ясно +15.2 +12.3 83 +15 +15 1010.0 1010.0
03 22.02 штиль 0 10 км ясно +15.2 +13.4 89 +15 +18 1012.7 1013.0 +12.6
06 22.02 З 1 10 км ясно +26.6 +15.1 49 +29 +45 жарко 1014.1 1014.0
09 22.02 З 2 10 км ясно +29.8 +14.3 39 +32 +45 душно 1011.8 1012.0
12 22.02 З 2 10 км ясно +27.6 +15.5 48 +31 +32 душно 1011.2 1011.0 +29.6
15 22.02 З 1 4000 м ясно +23.2 +18.5 75 +29 +29 душно 1013.3 1013.0
18 22.02 штиль 0 4000 м ясно +20.2 +16.9 81 +23 +23 комфорт 1014.5 1015.0
21 22.02 штиль 0 4000 м ясно +17.0 +14.2 84 +17 +17 1013.7 1014.0
00 23.02 штиль 0 4000 м ясно +14.6 +12.0 84 +14 +14 1013.4 1013.0
03 23.02 штиль 0 10 км ясно +14.6 +14.3 98 +14 +17 1015.7 1016.0 +12.2
06 23.02 С 1 10 км ясно +27.4 +7.0 27 +27 +43 жарко 1016.7 1017.0
09 23.02 С 2 10 км ясно +31.8 +1.1 14 +29 +42 жарко 1014.1 1014.0
12 23.02 С 1 10 км ясно +32.0 +0.7 14 +29 +31 жарко 1013.2 1013.0 +32.4
15 23.02 штиль 0 4000 м ясно +25.2 +3.9 25 +24 +24 комфорт 1015.0 1015.0
18 23.02 штиль 0 4000 м ясно +19.6 +5.4 39 +20 +20 1016.4 1016.0
21 23.02 штиль 0 4000 м ясно +15.6 +3.4 44 +16 +16 1015.8 1016.0
00 24.02 штиль 0 4000 м ясно +13.6 +4.0 52 +13 +13 1015.4 1015.0
03 24.02 штиль 0 10 км ясно +16.2 +6.9 54 +16 +19 1017.5 1018.0 +11.8

 

Местоположение метеостанции Naliya (Gujarat, Индия): широта 23.25 долгота 68.85 высота над уровнем моря 21 м.

В архиве по умолчанию представлена погода в Naliya за последнюю неделю. Архивные данные за месяц целиком и за предыдущие месяцы, начиная с января 2011 года, Вы можете получить, выбрав интересующий диапазон дат из раскрывающегося списка и нажав кнопку "Ввод!".

Внимание! Время в таблицах - всемирное. Для получения местного времени необходимо прибавить поправку, которая в Naliya равна 5.5 ч.

Смотрите также архив погоды в соседних городах и на ближайших метеорологических станциях:

Погода в Mandvi (Gujarat, Индия) (64 км)
Погода в Bhuj-Rudramata (Gujarat, Индия) (84 км)
Погода в Okha (Gujarat, Индия) (90 км)
Погода в Dwarka (Gujarat, Индия) (101 км)
Погода в Kandla (Gujarat, Индия) (129 км)
Погода в New Kandla (Gujarat, Индия) (143 км)
Погода в Badin (Пакистан) (154 км)
Погода в Porbandar (Gujarat, Индия) (197 км)
Погода в Rajkot (Gujarat, Индия) (224 км)
Погода в Hyderabad Airport (Пакистан) (241 км)

Пояснения к столбцам:

Ветер - указаны скорость ветра в м/с - средняя за 10 мин, порывы в срок и между сроками (в фигурных скобках) и направление, откуда дует ветер: С - северный, СВ - северо-восточный, В - восточный, ЮВ - юго-восточный, Ю - южный, ЮЗ - юго-западный, З - западный, СЗ - северо-западный.
Видимость - горизонтальная дальность видимости в метрах или километрах. При видимости от 1 до 10 км при отсутствии осадков обычно наблюдается дымка, при ухудшении видимости до 1 км и менее - туман. В сухую погоду видимость может ухудшаться дымом, пылью или мглою.
Явления - указаны атмосферные явления, наблюдавшиеся в срок или в последний час перед сроком; фигурными скобками обозначены явления, наблюдавшиеся между сроками (за 1-3 часа до срока); квадратными скобками обозначены град или гололедные отложения с указанием их диаметра в мм.
Облачность - указаны через наклонную черту общая и нижняя облачность в баллах и высота нижней границы облаков в метрах; квадратными скобками обозначены формы облаков: Ci - перистые, Cs - перисто-слоистые, Cc - перисто-кучевые, Ac - высококучевые, As - высокослоистые, Sc - слоисто-кучевые, Ns - слоисто-дождевые, Cu - кучевые, Cb - кучево-дождевые. Подробнее классификацию облаков см. в Атласе облаков (PDF).
T - Температура воздуха - температура, измеренная на высоте 2 м над землей.
Td - Температура точки росы - температура, при понижении до которой содержащийся в воздухе водяной пар достигнет насыщения.
f - Относительная влажность воздуха - влажноcть воздуха, измеренная на высоте 2 м над землей.
Te - Эффективная температура - температура, которую ощущает одетый по сезону человек в тени. Характеристика душности погоды. При расчете учитывается влияние влажности воздуха и скорости ветра на теплоощущения человека.
Tes - Эффективная температура на солнце - температура, которую ощущает человек, с поправкой на солнечный нагрев. Характеристика знойности погоды. Зависит от высоты солнца над горизонтом, облачности и скорости ветра. Ночью, в пасмурную погоду, а также при ветре 12 м/с и более поправка равна нулю.
P - Атмосферное давление - приведенное к уровню моря атмосферное давление.
Po - Атмосферное давление - измеренное на уровне метеостанции атмосферное давление.
Tmin - Минимальная температура - минимум температуры воздуха на высоте 2 м над землей.
Tmax - Максимальная температура - максимум температуры воздуха на высоте 2 м над землей.
R - Количество осадков - Количество выпавших осадков, мм. При наведении курсора мыши на число - период времени, за который выпало указанное количество осадков.
S - Снежный покров - Высота снежного покрова, см. При наведении курсора мыши на число - состояние снежного покрова и степень покрытия местности в баллах.